FW1703 Weather Reports


time (UTC)temp
C
wind
direction
speed
KPH
gust
KPH
rain 1hr
cm
rain 24hr
cm
rain mn
cm
humidity
%
barometer
mb
20260504214600 24 219 3.2 11.3 0.00 0.00 0.00 39 1008.4
20260504213110 24 246 6.4 14.5 0.00 0.00 0.00 38 1008.4
20260504211559 24 242 4.8 12.9 0.00 0.00 0.00 39 1008.5
20260504210054 24 165 4.8 22.5 0.00 0.00 0.00 40 1008.5
20260504204602 24 227 6.4 20.9 0.00 0.00 0.00 39 1008.7
20260504203058 24 155 6.4 19.3 0.00 0.00 0.00 39 1008.8
20260504201552 24 153 4.8 19.3 0.00 0.00 0.00 39 1008.9
20260504200054 25 220 4.8 17.7 0.00 0.00 0.00 38 1009.1
20260504194551 24 178 6.4 19.3 0.00 0.00 0.00 39 1009.3
20260504193059 24 132 4.8 16.1 0.00 0.00 0.00 39 1009.4
20260504191545 23 218 4.8 20.9 0.00 0.00 0.00 39 1009.7
20260504190052 23 248 6.4 20.9 0.00 0.00 0.00 40 1009.7
20260504184547 23 188 3.2 16.1 0.00 0.00 0.00 38 1009.9
20260504183056 23 121 4.8 12.9 0.00 0.00 0.00 43 1010.1
20260504181537 23 155 4.8 20.9 0.00 0.00 0.00 40 1010.3
20260504180049 22 252 8.0 20.9 0.00 0.00 0.00 39 1010.5
20260504174533 22 220 8.0 19.3 0.00 0.00 0.00 41 1010.7
20260504173035 22 159 4.8 12.9 0.00 0.00 0.00 43 1010.9
20260504171530 22 146 8.0 17.7 0.00 0.00 0.00 40 1011.3
20260504081504 9 208 1.6 6.4 0.00 0.00 0.00 58 1014.1
20260504044540 11 200 1.6 8.0 0.00 0.00 0.00 53 1014.0
20260504043044 11 243 3.2 11.3 0.00 0.00 0.00 52 1014.0
20260504041539 11 184 0.0 9.7 0.00 0.00 0.00 52 1014.0
20260504040047 11 232 3.2 9.7 0.00 0.00 0.00 51 1013.7
20260504034539 11 204 4.8 11.3 0.00 0.00 0.00 50 1013.7
20260504033041 11 207 1.6 9.7 0.00 0.00 0.00 51 1013.4
20260504031536 11 253 0.0 6.4 0.00 0.00 0.00 50 1013.4
20260504030041 11 192 0.0 4.8 0.00 0.00 0.00 50 1013.4
20260504024537 11 237 0.0 4.8 0.00 0.00 0.00 48 1013.4
20260504023036 11 202 0.0 6.4 0.00 0.00 0.00 48 1013.4
20260504021536 11 245 0.0 4.8 0.00 0.00 0.00 49 1013.5
20260504020041 11 234 1.6 4.8 0.00 0.00 0.00 48 1013.5
20260504014537 11 215 0.0 3.2 0.00 0.00 0.00 49 1013.4
20260504013036 12 201 0.0 4.8 0.00 0.00 0.00 49 1013.3
20260504011533 12 220 1.6 3.2 0.00 0.00 0.00 48 1013.3
20260504010031 12 234 0.0 3.2 0.00 0.00 0.00 47 1013.1
20260504004530 12 250 1.6 4.8 0.00 0.00 0.00 45 1013.0
20260504003031 13 233 0.0 4.8 0.00 0.00 0.00 44 1012.8
20260504001532 13 201 0.0 8.0 0.00 0.00 0.00 43 1012.6
20260504000028 13 223 0.0 6.4 0.00 0.00 0.00 44 1012.4
20260503234529 14 252 1.6 9.7 0.00 0.00 0.00 42 1012.3
20260503233026 15 281 1.6 12.9 0.00 0.00 0.00 41 1012.3
20260503231527 15 256 1.6 9.7 0.00 0.00 0.00 42 1012.2
20260503230031 15 335 1.6 16.1 0.00 0.00 0.00 41 1012.0
20260503224526 16 284 1.6 16.1 0.00 0.00 0.00 39 1012.2
20260503223026 16 314 3.2 16.1 0.00 0.00 0.00 38 1012.0
20260503221525 16 103 1.6 19.3 0.00 0.00 0.00 40 1012.0
20260503220024 16 306 3.2 19.3 0.00 0.00 0.00 37 1012.2